Time,TemperatureF,DewpointF,PressureIn,WindDirection,WindDirectionDegrees,WindSpeedMPH,WindSpeedGustMPH,Humidity,HourlyPrecipIn,Conditions,Clouds,dailyrainin,SolarRadiationWatts/m^2,SoftwareType,DateUTC
2013-06-14 00:01:00,56.2,49.8,29.92,North,350,0.0,0.0,79,0.00,,,0.00,0,WeatherCatV1.12B45,2013-06-14 07:01:00,
2013-06-14 00:06:00,55.9,49.5,29.92,North,349,0.0,0.0,79,0.00,,,0.00,0,WeatherCatV1.12B45,2013-06-14 07:06:00,
2013-06-14 00:11:00,55.9,49.5,29.92,North,349,0.0,0.0,79,0.00,,,0.00,0,WeatherCatV1.12B45,2013-06-14 07:11:00,
2013-06-14 00:16:00,55.6,49.2,29.92,North,353,0.0,0.0,79,0.00,,,0.00,0,WeatherCatV1.12B45,2013-06-14 07:16:00,
2013-06-14 00:21:00,55.4,49.0,29.92,NW,325,0.0,0.0,79,0.00,,,0.00,0,WeatherCatV1.12B45,2013-06-14 07:21:00,
2013-06-14 00:26:00,55.3,49.6,29.92,North,353,0.0,0.0,81,0.00,,,0.00,0,WeatherCatV1.12B45,2013-06-14 07:26:00,
2013-06-14 00:31:00,55.3,49.6,29.92,North,353,0.0,0.0,81,0.00,,,0.00,0,WeatherCatV1.12B45,2013-06-14 07:31:00,
2013-06-14 00:36:00,55.0,49.3,29.92,North,350,0.0,0.0,81,0.00,,,0.00,0,WeatherCatV1.12B45,2013-06-14 07:36:00,
2013-06-14 00:41:00,54.8,49.1,29.92,North,350,0.0,0.0,81,0.00,,,0.00,0,WeatherCatV1.12B45,2013-06-14 07:41:00,
2013-06-14 00:46:00,54.7,49.0,29.92,North,350,0.0,0.0,81,0.00,,,0.00,0,WeatherCatV1.12B45,2013-06-14 07:46:00,
2013-06-14 00:51:00,54.5,48.8,29.92,NNW,347,0.0,0.0,81,0.00,,,0.00,0,WeatherCatV1.12B45,2013-06-14 07:51:00,
2013-06-14 00:56:00,54.4,49.0,29.92,NNW,347,0.0,0.0,82,0.00,,,0.00,0,WeatherCatV1.12B45,2013-06-14 07:56:00,
2013-06-14 01:01:00,54.4,49.0,29.91,NNW,344,0.0,0.0,82,0.00,,,0.00,0,WeatherCatV1.12B45,2013-06-14 08:01:00,
2013-06-14 01:06:00,54.1,48.7,29.91,NNW,336,0.0,0.0,82,0.00,,,0.00,0,WeatherCatV1.12B45,2013-06-14 08:06:00,
2013-06-14 01:11:00,54.1,49.1,29.91,NNW,346,0.0,0.0,83,0.00,,,0.00,0,WeatherCatV1.12B45,2013-06-14 08:11:00,
2013-06-14 01:16:00,53.9,48.9,29.91,NNW,347,0.0,0.0,83,0.00,,,0.00,0,WeatherCatV1.12B45,2013-06-14 08:16:00,
2013-06-14 01:21:00,53.8,48.8,29.91,NNW,342,0.0,0.0,83,0.00,,,0.00,0,WeatherCatV1.12B45,2013-06-14 08:21:00,
2013-06-14 01:26:00,53.6,48.6,29.91,NNW,340,0.0,0.0,83,0.00,,,0.00,0,WeatherCatV1.12B45,2013-06-14 08:26:00,
2013-06-14 01:31:00,53.5,48.5,29.90,NNW,342,0.0,0.0,83,0.00,,,0.00,0,WeatherCatV1.12B45,2013-06-14 08:31:00,
2013-06-14 01:36:00,53.3,48.3,29.90,NNW,333,0.0,0.0,83,0.00,,,0.00,0,WeatherCatV1.12B45,2013-06-14 08:36:00,
2013-06-14 01:41:00,53.2,48.5,29.90,NNW,342,0.0,0.0,84,0.00,,,0.00,0,WeatherCatV1.12B45,2013-06-14 08:41:00,
2013-06-14 01:46:00,53.1,48.4,29.90,NNW,336,0.0,0.0,84,0.00,,,0.00,0,WeatherCatV1.12B45,2013-06-14 08:46:00,
2013-06-14 01:51:00,52.9,48.2,29.90,NNW,342,0.0,0.0,84,0.00,,,0.00,0,WeatherCatV1.12B45,2013-06-14 08:51:00,
2013-06-14 01:56:00,52.9,48.2,29.90,NNW,335,0.0,0.0,84,0.00,,,0.00,0,WeatherCatV1.12B45,2013-06-14 08:56:00,
2013-06-14 02:01:00,52.8,48.4,29.90,NNW,343,0.0,0.0,85,0.00,,,0.00,0,WeatherCatV1.12B45,2013-06-14 09:01:00,
2013-06-14 02:06:00,52.6,48.2,29.90,NNW,342,0.0,0.0,85,0.00,,,0.00,0,WeatherCatV1.12B45,2013-06-14 09:06:00,
2013-06-14 02:11:00,52.5,48.1,29.90,NNW,344,0.0,0.0,85,0.00,,,0.00,0,WeatherCatV1.12B45,2013-06-14 09:11:00,
2013-06-14 02:16:00,52.5,48.1,29.90,NNW,343,0.0,0.0,85,0.00,,,0.00,0,WeatherCatV1.12B45,2013-06-14 09:16:00,
2013-06-14 02:21:00,52.3,47.9,29.90,NNW,342,0.0,0.0,85,0.00,,,0.00,0,WeatherCatV1.12B45,2013-06-14 09:21:00,
2013-06-14 02:26:00,52.2,47.8,29.90,NNW,342,0.0,0.0,85,0.00,,,0.00,0,WeatherCatV1.12B45,2013-06-14 09:26:00,
2013-06-14 02:31:00,52.0,47.6,29.90,NNW,340,0.0,0.0,85,0.00,,,0.00,0,WeatherCatV1.12B45,2013-06-14 09:31:00,
2013-06-14 02:36:00,52.0,47.6,29.90,NNW,343,0.0,0.0,85,0.00,,,0.00,0,WeatherCatV1.12B45,2013-06-14 09:36:00,
2013-06-14 02:41:00,51.9,47.5,29.90,NNW,342,0.0,0.0,85,0.00,,,0.00,0,WeatherCatV1.12B45,2013-06-14 09:41:00,
2013-06-14 02:46:00,51.7,47.3,29.89,NNW,337,0.0,0.0,85,0.00,,,0.00,0,WeatherCatV1.12B45,2013-06-14 09:46:00,
2013-06-14 02:51:00,51.7,47.3,29.89,NNW,337,0.0,0.0,85,0.00,,,0.00,0,WeatherCatV1.12B45,2013-06-14 09:51:00,
2013-06-14 02:56:00,51.6,47.2,29.89,NNW,337,0.0,0.0,85,0.00,,,0.00,0,WeatherCatV1.12B45,2013-06-14 09:56:00,
2013-06-14 03:01:00,51.6,47.5,29.88,NNW,336,0.0,0.0,86,0.00,,,0.00,0,WeatherCatV1.12B45,2013-06-14 10:01:00,
2013-06-14 03:06:00,51.4,47.4,29.88,NNW,337,0.0,0.0,86,0.00,,,0.00,0,WeatherCatV1.12B45,2013-06-14 10:06:00,
2013-06-14 03:11:00,51.4,47.4,29.88,NNW,337,0.0,0.0,86,0.00,,,0.00,0,WeatherCatV1.12B45,2013-06-14 10:11:00,
2013-06-14 03:16:00,51.4,47.7,29.88,South,186,0.0,0.0,87,0.00,,,0.00,0,WeatherCatV1.12B45,2013-06-14 10:16:00,
2013-06-14 03:21:00,51.4,47.7,29.88,NNW,336,0.0,0.0,87,0.00,,,0.00,0,WeatherCatV1.12B45,2013-06-14 10:21:00,
2013-06-14 03:26:00,51.1,47.1,29.88,NNW,333,0.0,0.0,86,0.00,,,0.00,0,WeatherCatV1.12B45,2013-06-14 10:26:00,
2013-06-14 03:31:00,51.0,47.0,29.87,NNW,336,0.0,0.0,86,0.00,,,0.00,0,WeatherCatV1.12B45,2013-06-14 10:31:00,
2013-06-14 03:36:00,51.0,47.0,29.87,NNW,337,0.0,0.0,86,0.00,,,0.00,0,WeatherCatV1.12B45,2013-06-14 10:36:00,
2013-06-14 03:41:00,50.8,47.1,29.87,NNW,336,0.0,0.0,87,0.00,,,0.00,0,WeatherCatV1.12B45,2013-06-14 10:41:00,
2013-06-14 03:46:00,50.8,47.1,29.87,NNW,337,0.0,0.0,87,0.00,,,0.00,0,WeatherCatV1.12B45,2013-06-14 10:46:00,
2013-06-14 03:51:00,50.7,47.0,29.87,NNW,336,0.0,0.0,87,0.00,,,0.00,0,WeatherCatV1.12B45,2013-06-14 10:51:00,
2013-06-14 03:56:00,50.7,47.0,29.87,NNW,340,0.0,0.0,87,0.00,,,0.00,0,WeatherCatV1.12B45,2013-06-14 10:56:00,
2013-06-14 04:01:00,50.5,46.8,29.87,NNW,332,0.0,0.0,87,0.00,,,0.00,0,WeatherCatV1.12B45,2013-06-14 11:01:00,
2013-06-14 04:06:00,50.4,46.7,29.87,NW,323,0.0,0.0,87,0.00,,,0.00,0,WeatherCatV1.12B45,2013-06-14 11:06:00,
2013-06-14 04:11:00,50.4,46.7,29.87,NNW,329,0.0,0.0,87,0.00,,,0.00,0,WeatherCatV1.12B45,2013-06-14 11:11:00,
2013-06-14 04:16:00,50.2,46.5,29.86,NW,326,0.0,0.0,87,0.00,,,0.00,0,WeatherCatV1.12B45,2013-06-14 11:16:00,
2013-06-14 04:21:00,50.2,46.5,29.86,NNW,329,0.0,0.0,87,0.00,,,0.00,0,WeatherCatV1.12B45,2013-06-14 11:21:00,
2013-06-14 04:26:00,50.1,46.7,29.86,NNW,329,0.0,0.0,88,0.00,,,0.00,0,WeatherCatV1.12B45,2013-06-14 11:26:00,
2013-06-14 04:31:00,50.1,46.7,29.86,NNW,335,0.0,0.0,88,0.00,,,0.00,0,WeatherCatV1.12B45,2013-06-14 11:31:00,
2013-06-14 04:36:00,50.1,46.7,29.86,NNW,335,0.0,0.0,88,0.00,,,0.00,0,WeatherCatV1.12B45,2013-06-14 11:36:00,
2013-06-14 04:41:00,49.9,46.5,29.86,NNW,336,0.0,0.0,88,0.00,,,0.00,0,WeatherCatV1.12B45,2013-06-14 11:41:00,
2013-06-14 04:46:00,49.9,46.5,29.86,NNW,333,0.0,0.0,88,0.00,,,0.00,0,WeatherCatV1.12B45,2013-06-14 11:46:00,
2013-06-14 04:51:00,49.8,46.4,29.86,NNW,332,0.0,0.0,88,0.00,,,0.00,0,WeatherCatV1.12B45,2013-06-14 11:51:00,
2013-06-14 04:56:00,49.6,46.2,29.86,NNW,333,0.0,0.0,88,0.00,,,0.00,0,WeatherCatV1.12B45,2013-06-14 11:56:00,
2013-06-14 05:01:00,49.6,46.2,29.86,NNW,329,0.0,0.0,88,0.00,,,0.00,0,WeatherCatV1.12B45,2013-06-14 12:01:00,
2013-06-14 05:06:00,49.5,46.1,29.86,NNW,329,0.0,0.0,88,0.00,,,0.00,0,WeatherCatV1.12B45,2013-06-14 12:06:00,
2013-06-14 05:11:00,49.5,46.1,29.86,NW,323,0.0,0.0,88,0.00,,,0.00,0,WeatherCatV1.12B45,2013-06-14 12:11:00,
2013-06-14 05:16:00,49.4,46.3,29.86,NW,326,0.0,0.0,89,0.00,,,0.00,0,WeatherCatV1.12B45,2013-06-14 12:16:00,
2013-06-14 05:21:00,49.4,46.3,29.86,NW,325,0.0,0.0,89,0.00,,,0.00,0,WeatherCatV1.12B45,2013-06-14 12:21:00,
2013-06-14 05:26:00,49.4,46.3,29.86,NW,326,0.0,0.0,89,0.00,,,0.00,0,WeatherCatV1.12B45,2013-06-14 12:26:00,
2013-06-14 05:31:00,49.2,46.1,29.86,NNW,329,0.0,0.0,89,0.00,,,0.00,0,WeatherCatV1.12B45,2013-06-14 12:31:00,
2013-06-14 05:36:00,49.2,46.1,29.86,NW,325,0.0,0.0,89,0.00,,,0.00,0,WeatherCatV1.12B45,2013-06-14 12:36:00,
2013-06-14 05:41:00,49.2,46.1,29.86,NNW,329,0.0,0.0,89,0.00,,,0.00,0,WeatherCatV1.12B45,2013-06-14 12:41:00,
2013-06-14 05:46:00,49.1,46.0,29.86,NNW,330,0.0,0.0,89,0.00,,,0.00,0,WeatherCatV1.12B45,2013-06-14 12:46:00,
2013-06-14 05:51:00,48.9,45.8,29.86,NNW,329,0.0,0.0,89,0.00,,,0.00,0,WeatherCatV1.12B45,2013-06-14 12:51:00,
2013-06-14 05:56:00,48.9,45.8,29.86,NW,325,0.0,0.0,89,0.00,,,0.00,0,WeatherCatV1.12B45,2013-06-14 12:56:00,
2013-06-14 06:01:00,48.8,45.7,29.86,NW,325,0.0,0.0,89,0.00,,,0.00,0,WeatherCatV1.12B45,2013-06-14 13:01:00,
2013-06-14 06:06:00,48.8,45.7,29.86,NW,322,0.0,0.0,89,0.00,,,0.00,11,WeatherCatV1.12B45,2013-06-14 13:06:00,
2013-06-14 06:11:00,48.6,45.5,29.86,NW,320,0.0,0.0,89,0.00,,,0.00,12,WeatherCatV1.12B45,2013-06-14 13:11:00,
2013-06-14 06:16:00,48.6,45.5,29.86,NW,325,0.0,0.0,89,0.00,,,0.00,12,WeatherCatV1.12B45,2013-06-14 13:16:00,
2013-06-14 06:21:00,48.6,45.5,29.86,NW,323,0.0,0.0,89,0.00,,,0.00,16,WeatherCatV1.12B45,2013-06-14 13:21:00,
2013-06-14 06:26:00,48.6,45.5,29.86,NW,325,0.0,0.0,89,0.00,,,0.00,18,WeatherCatV1.12B45,2013-06-14 13:26:00,
2013-06-14 06:31:00,48.6,45.8,29.87,NW,325,0.0,0.0,90,0.00,,,0.00,21,WeatherCatV1.12B45,2013-06-14 13:31:00,
2013-06-14 06:36:00,48.6,45.8,29.87,NW,319,0.0,0.0,90,0.00,,,0.00,32,WeatherCatV1.12B45,2013-06-14 13:36:00,
2013-06-14 06:41:00,48.8,46.0,29.87,NW,313,0.0,0.0,90,0.00,,,0.00,53,WeatherCatV1.12B45,2013-06-14 13:41:00,
2013-06-14 06:46:00,49.2,46.7,29.87,North,349,0.0,0.0,91,0.00,,,0.00,53,WeatherCatV1.12B45,2013-06-14 13:46:00,
2013-06-14 06:51:00,49.6,47.1,29.87,North,356,0.0,0.0,91,0.00,,,0.00,53,WeatherCatV1.12B45,2013-06-14 13:51:00,
2013-06-14 06:56:00,49.9,47.4,29.87,NNW,342,0.0,0.0,91,0.00,,,0.00,53,WeatherCatV1.12B45,2013-06-14 13:56:00,
2013-06-14 07:01:00,51.1,48.6,29.86,NNW,346,0.0,0.0,91,0.00,,,0.00,53,WeatherCatV1.12B45,2013-06-14 14:01:00,
2013-06-14 07:06:00,52.2,49.7,29.86,North,353,0.0,0.0,91,0.00,,,0.00,53,WeatherCatV1.12B45,2013-06-14 14:06:00,
2013-06-14 07:11:00,52.9,50.0,29.86,North,0,0.0,0.0,90,0.00,,,0.00,53,WeatherCatV1.12B45,2013-06-14 14:11:00,
2013-06-14 07:16:00,54.4,50.6,29.86,North,353,0.0,0.0,87,0.00,,,0.00,192,WeatherCatV1.12B45,2013-06-14 14:16:00,
2013-06-14 07:21:00,55.4,51.0,29.86,North,357,0.0,0.0,85,0.00,,,0.00,208,WeatherCatV1.12B45,2013-06-14 14:21:00,
2013-06-14 07:26:00,56.7,51.9,29.86,North,356,0.0,0.0,84,0.00,,,0.00,208,WeatherCatV1.12B45,2013-06-14 14:26:00,
2013-06-14 07:31:00,58.0,53.2,29.86,North,356,0.0,0.0,84,0.00,,,0.00,236,WeatherCatV1.12B45,2013-06-14 14:31:00,
2013-06-14 07:36:00,59.2,54.4,29.86,North,357,0.0,0.0,84,0.00,,,0.00,236,WeatherCatV1.12B45,2013-06-14 14:36:00,
2013-06-14 07:41:00,59.9,51.6,29.86,North,353,0.0,0.0,74,0.00,,,0.00,273,WeatherCatV1.12B45,2013-06-14 14:41:00,
2013-06-14 07:46:00,60.7,51.6,29.86,North,350,0.0,0.0,72,0.00,,,0.00,287,WeatherCatV1.12B45,2013-06-14 14:46:00,
2013-06-14 07:51:00,61.5,52.4,29.86,North,353,0.0,0.0,72,0.00,,,0.00,318,WeatherCatV1.12B45,2013-06-14 14:51:00,
2013-06-14 07:56:00,62.0,51.3,29.86,North,350,0.0,0.0,68,0.00,,,0.00,333,WeatherCatV1.12B45,2013-06-14 14:56:00,
2013-06-14 08:01:00,63.4,51.0,29.86,North,353,0.0,0.0,64,0.00,,,0.00,352,WeatherCatV1.12B45,2013-06-14 15:01:00,
2013-06-14 08:06:00,64.5,52.0,29.86,North,354,0.0,0.0,64,0.00,,,0.00,370,WeatherCatV1.12B45,2013-06-14 15:06:00,
2013-06-14 08:11:00,65.5,51.2,29.86,North,353,0.0,0.0,60,0.00,,,0.00,382,WeatherCatV1.12B45,2013-06-14 15:11:00,
2013-06-14 08:16:00,66.0,51.7,29.86,North,350,0.0,0.0,60,0.00,,,0.00,403,WeatherCatV1.12B45,2013-06-14 15:16:00,
2013-06-14 08:21:00,66.8,52.5,29.86,NNW,329,0.0,0.0,60,0.00,,,0.00,410,WeatherCatV1.12B45,2013-06-14 15:21:00,
2013-06-14 08:26:00,66.9,51.6,29.86,NW,323,0.0,0.0,58,0.00,,,0.00,410,WeatherCatV1.12B45,2013-06-14 15:26:00,
2013-06-14 08:31:00,67.1,52.3,29.86,NW,313,0.0,1.0,59,0.00,,,0.00,450,WeatherCatV1.12B45,2013-06-14 15:31:00,
2013-06-14 08:36:00,67.4,52.1,29.86,NW,312,0.0,0.0,58,0.00,,,0.00,470,WeatherCatV1.12B45,2013-06-14 15:36:00,
2013-06-14 08:41:00,67.8,52.5,29.86,NW,304,0.0,0.0,58,0.00,,,0.00,470,WeatherCatV1.12B45,2013-06-14 15:41:00,
2013-06-14 08:46:00,67.9,52.1,29.86,NW,316,0.0,0.0,57,0.00,,,0.00,470,WeatherCatV1.12B45,2013-06-14 15:46:00,
2013-06-14 08:51:00,68.3,52.5,29.86,NW,318,0.0,0.0,57,0.00,,,0.00,517,WeatherCatV1.12B45,2013-06-14 15:51:00,
2013-06-14 08:56:00,68.4,52.1,29.86,WNW,299,0.0,1.0,56,0.00,,,0.00,535,WeatherCatV1.12B45,2013-06-14 15:56:00,
2013-06-14 09:01:00,68.6,52.7,29.86,WNW,298,0.0,0.0,57,0.00,,,0.00,538,WeatherCatV1.12B45,2013-06-14 16:01:00,
2013-06-14 09:06:00,68.8,52.9,29.86,WNW,289,0.0,0.0,57,0.00,,,0.00,565,WeatherCatV1.12B45,2013-06-14 16:06:00,
2013-06-14 09:11:00,68.9,52.1,29.86,WNW,294,0.0,0.0,55,0.00,,,0.00,565,WeatherCatV1.12B45,2013-06-14 16:11:00,
2013-06-14 09:16:00,69.1,52.2,29.86,NW,316,0.0,0.0,55,0.00,,,0.00,565,WeatherCatV1.12B45,2013-06-14 16:16:00,
2013-06-14 09:21:00,69.8,52.9,29.86,WNW,296,0.0,0.0,55,0.00,,,0.00,600,WeatherCatV1.12B45,2013-06-14 16:21:00,
2013-06-14 09:26:00,70.3,52.9,29.86,WNW,301,0.0,0.0,54,0.00,,,0.00,619,WeatherCatV1.12B45,2013-06-14 16:26:00,
2013-06-14 09:31:00,70.8,52.3,29.85,WNW,296,0.0,0.0,52,0.00,,,0.00,619,WeatherCatV1.12B45,2013-06-14 16:31:00,
2013-06-14 09:36:00,71.3,52.2,29.85,WNW,299,0.0,0.0,51,0.00,,,0.00,648,WeatherCatV1.12B45,2013-06-14 16:36:00,
2013-06-14 09:41:00,71.5,52.9,29.85,WNW,294,0.0,2.0,52,0.00,,,0.00,674,WeatherCatV1.12B45,2013-06-14 16:41:00,
2013-06-14 09:46:00,71.6,52.5,29.85,WNW,302,2.0,3.0,51,0.00,,,0.00,688,WeatherCatV1.12B45,2013-06-14 16:46:00,
2013-06-14 09:51:00,71.6,52.5,29.85,WNW,294,1.0,2.0,51,0.00,,,0.00,699,WeatherCatV1.12B45,2013-06-14 16:51:00,
2013-06-14 09:56:00,71.8,52.7,29.85,NW,305,0.0,2.0,51,0.00,,,0.00,706,WeatherCatV1.12B45,2013-06-14 16:56:00,
2013-06-14 10:01:00,72.1,52.4,29.85,NW,306,0.0,2.0,50,0.00,,,0.00,720,WeatherCatV1.12B45,2013-06-14 17:01:00,
2013-06-14 10:06:00,72.8,53.1,29.85,West,281,0.0,2.0,50,0.00,,,0.00,737,WeatherCatV1.12B45,2013-06-14 17:06:00,
2013-06-14 10:11:00,73.3,53.0,29.85,NW,319,0.0,1.0,49,0.00,,,0.00,751,WeatherCatV1.12B45,2013-06-14 17:11:00,
2013-06-14 10:16:00,73.7,52.2,29.84,West,281,0.0,2.0,47,0.00,,,0.00,751,WeatherCatV1.12B45,2013-06-14 17:16:00,
2013-06-14 10:21:00,74.7,52.5,29.84,WNW,291,1.0,1.0,46,0.00,,,0.00,751,WeatherCatV1.12B45,2013-06-14 17:21:00,
2013-06-14 10:26:00,75.1,52.3,29.84,WNW,282,0.0,1.0,45,0.00,,,0.00,790,WeatherCatV1.12B45,2013-06-14 17:26:00,
2013-06-14 10:31:00,75.6,52.7,29.84,NW,306,0.0,2.0,45,0.00,,,0.00,801,WeatherCatV1.12B45,2013-06-14 17:31:00,
2013-06-14 10:36:00,76.1,52.6,29.84,NW,322,2.0,2.0,44,0.00,,,0.00,806,WeatherCatV1.12B45,2013-06-14 17:36:00,
2013-06-14 10:41:00,76.1,52.6,29.84,NW,316,2.0,2.0,44,0.00,,,0.00,816,WeatherCatV1.12B45,2013-06-14 17:41:00,
2013-06-14 10:46:00,76.1,52.0,29.84,NW,306,0.0,1.0,43,0.00,,,0.00,822,WeatherCatV1.12B45,2013-06-14 17:46:00,
2013-06-14 10:51:00,76.7,51.9,29.84,NW,319,0.0,0.0,42,0.00,,,0.00,822,WeatherCatV1.12B45,2013-06-14 17:51:00,
2013-06-14 10:56:00,77.0,52.1,29.84,North,350,3.0,5.0,42,0.00,,,0.00,852,WeatherCatV1.12B45,2013-06-14 17:56:00,
2013-06-14 11:01:00,76.8,49.9,29.85,NNW,339,2.0,2.0,39,0.00,,,0.00,862,WeatherCatV1.12B45,2013-06-14 18:01:00,
2013-06-14 11:06:00,77.2,50.3,29.85,North,349,0.0,1.0,39,0.00,,,0.00,862,WeatherCatV1.12B45,2013-06-14 18:06:00,
2013-06-14 11:11:00,77.4,49.8,29.85,NNW,339,0.0,3.0,38,0.00,,,0.00,862,WeatherCatV1.12B45,2013-06-14 18:11:00,
2013-06-14 11:16:00,78.1,50.4,29.84,North,356,0.0,0.0,38,0.00,,,0.00,862,WeatherCatV1.12B45,2013-06-14 18:16:00,
2013-06-14 11:21:00,78.5,50.8,29.84,North,357,1.0,2.0,38,0.00,,,0.00,862,WeatherCatV1.12B45,2013-06-14 18:21:00,
2013-06-14 11:26:00,78.6,50.8,29.84,North,357,0.0,1.0,38,0.00,,,0.00,913,WeatherCatV1.12B45,2013-06-14 18:26:00,
2013-06-14 11:31:00,79.2,51.4,29.84,North,357,0.0,1.0,38,0.00,,,0.00,913,WeatherCatV1.12B45,2013-06-14 18:31:00,
2013-06-14 11:36:00,79.2,44.2,29.84,North,357,3.0,3.0,29,0.00,,,0.00,913,WeatherCatV1.12B45,2013-06-14 18:36:00,
2013-06-14 11:41:00,79.2,45.1,29.84,North,350,2.0,3.0,30,0.00,,,0.00,913,WeatherCatV1.12B45,2013-06-14 18:41:00,
2013-06-14 11:46:00,79.4,45.2,29.84,NW,325,0.0,5.0,30,0.00,,,0.00,929,WeatherCatV1.12B45,2013-06-14 18:46:00,
2013-06-14 11:51:00,79.9,43.9,29.84,North,357,0.0,2.0,28,0.00,,,0.00,934,WeatherCatV1.12B45,2013-06-14 18:51:00,
2013-06-14 11:56:00,80.3,44.2,29.84,North,357,1.0,1.0,28,0.00,,,0.00,934,WeatherCatV1.12B45,2013-06-14 18:56:00,
2013-06-14 12:01:00,80.7,43.6,29.84,North,357,0.0,1.0,27,0.00,,,0.00,934,WeatherCatV1.12B45,2013-06-14 19:01:00,
2013-06-14 12:06:00,81.1,42.9,29.84,North,356,0.0,0.0,26,0.00,,,0.00,934,WeatherCatV1.12B45,2013-06-14 19:06:00,
2013-06-14 12:11:00,81.4,44.2,29.84,North,357,0.0,2.0,27,0.00,,,0.00,973,WeatherCatV1.12B45,2013-06-14 19:11:00,
2013-06-14 12:16:00,81.4,44.2,29.84,North,356,0.0,2.0,27,0.00,,,0.00,973,WeatherCatV1.12B45,2013-06-14 19:16:00,
2013-06-14 12:21:00,81.1,43.9,29.84,North,356,0.0,1.0,27,0.00,,,0.00,977,WeatherCatV1.12B45,2013-06-14 19:21:00,
2013-06-14 12:26:00,80.9,-99.9,29.84,North,357,1.0,5.0,-999,0.00,,,0.00,977,WeatherCatV1.12B45,2013-06-14 19:26:00,
2013-06-14 12:31:00,80.5,-99.9,29.83,North,356,1.0,3.0,-999,0.00,,,0.00,984,WeatherCatV1.12B45,2013-06-14 19:31:00,
2013-06-14 12:36:00,80.3,-99.9,29.83,North,356,5.0,5.0,-999,0.00,,,0.00,985,WeatherCatV1.12B45,2013-06-14 19:36:00,
2013-06-14 12:41:00,79.4,-99.9,29.83,North,357,1.0,5.0,-999,0.00,,,0.00,985,WeatherCatV1.12B45,2013-06-14 19:41:00,
2013-06-14 12:46:00,79.6,42.7,29.83,North,357,5.0,6.0,27,0.00,,,0.00,984,WeatherCatV1.12B45,2013-06-14 19:46:00,
2013-06-14 12:51:00,79.4,43.4,29.83,North,356,1.0,1.0,28,0.00,,,0.00,966,WeatherCatV1.12B45,2013-06-14 19:51:00,
2013-06-14 12:56:00,79.6,43.6,29.83,North,0,1.0,1.0,28,0.00,,,0.00,984,WeatherCatV1.12B45,2013-06-14 19:56:00,
2013-06-14 13:01:00,80.1,44.0,29.83,North,356,1.0,7.0,28,0.00,,,0.00,968,WeatherCatV1.12B45,2013-06-14 20:01:00,
2013-06-14 13:06:00,79.9,43.9,29.83,North,357,6.0,6.0,28,0.00,,,0.00,980,WeatherCatV1.12B45,2013-06-14 20:06:00,
2013-06-14 13:11:00,79.4,41.5,29.83,North,0,0.0,7.0,26,0.00,,,0.00,1005,WeatherCatV1.12B45,2013-06-14 20:11:00,
2013-06-14 13:16:00,79.8,42.8,29.83,North,357,0.0,6.0,27,0.00,,,0.00,987,WeatherCatV1.12B45,2013-06-14 20:16:00,
2013-06-14 13:21:00,80.3,44.2,29.83,North,0,1.0,5.0,28,0.00,,,0.00,987,WeatherCatV1.12B45,2013-06-14 20:21:00,
2013-06-14 13:26:00,80.5,42.4,29.83,North,357,5.0,5.0,26,0.00,,,0.00,984,WeatherCatV1.12B45,2013-06-14 20:26:00,
2013-06-14 13:31:00,80.5,43.4,29.82,North,353,1.0,2.0,27,0.00,,,0.00,978,WeatherCatV1.12B45,2013-06-14 20:31:00,
2013-06-14 13:36:00,80.3,40.2,29.82,North,357,2.0,6.0,24,0.00,,,0.00,978,WeatherCatV1.12B45,2013-06-14 20:36:00,
2013-06-14 13:41:00,80.3,41.2,29.82,North,357,0.0,3.0,25,0.00,,,0.00,978,WeatherCatV1.12B45,2013-06-14 20:41:00,
2013-06-14 13:46:00,80.5,41.4,29.82,North,357,3.0,3.0,25,0.00,,,0.00,973,WeatherCatV1.12B45,2013-06-14 20:46:00,
2013-06-14 13:51:00,80.3,41.2,29.82,North,356,2.0,2.0,25,0.00,,,0.00,971,WeatherCatV1.12B45,2013-06-14 20:51:00,
2013-06-14 13:56:00,80.3,42.3,29.82,North,353,0.0,1.0,26,0.00,,,0.00,971,WeatherCatV1.12B45,2013-06-14 20:56:00,
2013-06-14 14:01:00,80.1,43.1,29.82,North,353,2.0,7.0,27,0.00,,,0.00,962,WeatherCatV1.12B45,2013-06-14 21:01:00,
2013-06-14 14:06:00,80.1,44.0,29.82,North,350,0.0,1.0,28,0.00,,,0.00,961,WeatherCatV1.12B45,2013-06-14 21:06:00,
2013-06-14 14:11:00,80.1,44.0,29.82,North,357,2.0,3.0,28,0.00,,,0.00,936,WeatherCatV1.12B45,2013-06-14 21:11:00,
2013-06-14 14:16:00,80.1,44.0,29.82,North,0,3.0,6.0,28,0.00,,,0.00,936,WeatherCatV1.12B45,2013-06-14 21:16:00,
2013-06-14 14:21:00,79.8,43.8,29.82,North,356,1.0,2.0,28,0.00,,,0.00,936,WeatherCatV1.12B45,2013-06-14 21:21:00,
2013-06-14 14:26:00,79.8,43.8,29.82,North,354,2.0,2.0,28,0.00,,,0.00,954,WeatherCatV1.12B45,2013-06-14 21:26:00,
2013-06-14 14:31:00,79.9,43.9,29.81,North,354,0.0,4.0,28,0.00,,,0.00,943,WeatherCatV1.12B45,2013-06-14 21:31:00,
2013-06-14 14:36:00,80.5,46.2,29.81,North,354,0.0,5.0,30,0.00,,,0.00,934,WeatherCatV1.12B45,2013-06-14 21:36:00,
2013-06-14 14:41:00,80.9,43.8,29.81,North,350,2.0,7.0,27,0.00,,,0.00,922,WeatherCatV1.12B45,2013-06-14 21:41:00,
2013-06-14 14:46:00,81.6,48.0,29.80,North,349,0.0,2.0,31,0.00,,,0.00,915,WeatherCatV1.12B45,2013-06-14 21:46:00,
2013-06-14 14:51:00,81.8,43.5,29.80,NNW,344,0.0,3.0,26,0.00,,,0.00,908,WeatherCatV1.12B45,2013-06-14 21:51:00,
2013-06-14 14:56:00,81.8,45.5,29.80,NNW,347,1.0,2.0,28,0.00,,,0.00,903,WeatherCatV1.12B45,2013-06-14 21:56:00,
2013-06-14 15:01:00,81.8,44.5,29.80,North,357,1.0,1.0,27,0.00,,,0.00,897,WeatherCatV1.12B45,2013-06-14 22:01:00,
2013-06-14 15:06:00,81.8,43.5,29.80,North,357,2.0,2.0,26,0.00,,,0.00,890,WeatherCatV1.12B45,2013-06-14 22:06:00,
2013-06-14 15:11:00,81.8,43.5,29.80,North,357,2.0,2.0,26,0.00,,,0.00,890,WeatherCatV1.12B45,2013-06-14 22:11:00,
2013-06-14 15:16:00,81.8,41.5,29.80,North,356,1.0,7.0,24,0.00,,,0.00,690,WeatherCatV1.12B45,2013-06-14 22:16:00,
2013-06-14 15:21:00,81.8,39.2,29.80,North,0,3.0,3.0,22,0.00,,,0.00,269,WeatherCatV1.12B45,2013-06-14 22:21:00,
2013-06-14 15:26:00,81.8,39.2,29.80,North,357,1.0,1.0,22,0.00,,,0.00,269,WeatherCatV1.12B45,2013-06-14 22:26:00,
2013-06-14 15:31:00,81.8,39.2,29.79,North,0,2.0,3.0,22,0.00,,,0.00,896,WeatherCatV1.12B45,2013-06-14 22:31:00,
2013-06-14 15:36:00,81.8,38.0,29.79,North,356,7.0,7.0,21,0.00,,,0.00,889,WeatherCatV1.12B45,2013-06-14 22:36:00,
2013-06-14 15:41:00,81.4,38.9,29.79,North,0,4.0,7.0,22,0.00,,,0.00,873,WeatherCatV1.12B45,2013-06-14 22:41:00,
2013-06-14 15:46:00,81.4,37.7,29.78,North,357,1.0,2.0,21,0.00,,,0.00,519,WeatherCatV1.12B45,2013-06-14 22:46:00,
2013-06-14 15:51:00,81.1,37.4,29.78,North,357,0.0,6.0,21,0.00,,,0.00,512,WeatherCatV1.12B45,2013-06-14 22:51:00,
2013-06-14 15:56:00,81.1,37.4,29.78,North,0,1.0,2.0,21,0.00,,,0.00,512,WeatherCatV1.12B45,2013-06-14 22:56:00,
2013-06-14 16:01:00,80.3,36.8,29.78,North,0,3.0,8.0,21,0.00,,,0.00,512,WeatherCatV1.12B45,2013-06-14 23:01:00,
2013-06-14 16:11:00,79.9,36.5,29.78,North,0,1.0,2.0,21,0.00,,,0.00,512,WeatherCatV1.12B45,2013-06-14 23:11:00,
2013-06-14 16:16:00,79.0,35.7,29.78,North,0,2.0,2.0,21,0.00,,,0.00,512,WeatherCatV1.12B45,2013-06-14 23:16:00,
2013-06-14 16:21:00,78.6,43.7,29.78,North,357,3.0,3.0,29,0.00,,,0.00,512,WeatherCatV1.12B45,2013-06-14 23:21:00,
2013-06-14 16:26:00,79.0,44.0,29.78,North,356,0.0,1.0,29,0.00,,,0.00,512,WeatherCatV1.12B45,2013-06-14 23:26:00,
2013-06-14 16:31:00,78.1,43.2,29.77,NNW,343,3.0,5.0,29,0.00,,,0.00,183,WeatherCatV1.12B45,2013-06-14 23:31:00,
2013-06-14 16:36:00,77.4,45.2,29.77,North,0,0.0,2.0,32,0.00,,,0.00,183,WeatherCatV1.12B45,2013-06-14 23:36:00,
2013-06-14 16:41:00,77.4,46.0,29.77,North,0,0.0,3.0,33,0.00,,,0.00,267,WeatherCatV1.12B45,2013-06-14 23:41:00,
2013-06-14 16:46:00,77.0,47.2,29.77,North,357,1.0,3.0,35,0.00,,,0.00,178,WeatherCatV1.12B45,2013-06-14 23:46:00,
2013-06-14 16:56:00,76.8,47.8,29.77,North,356,1.0,3.0,36,0.00,,,0.00,146,WeatherCatV1.12B45,2013-06-14 23:56:00,
2013-06-14 17:01:00,76.8,48.5,29.76,NW,311,0.0,2.0,37,0.00,,,0.00,146,WeatherCatV1.12B45,2013-06-15 00:01:00,
2013-06-14 17:06:00,76.8,48.5,29.76,North,353,1.0,2.0,37,0.00,,,0.00,146,WeatherCatV1.12B45,2013-06-15 00:06:00,
2013-06-14 17:11:00,77.0,48.0,29.76,North,353,0.0,3.0,36,0.00,,,0.00,273,WeatherCatV1.12B45,2013-06-15 00:11:00,
2013-06-14 17:16:00,77.0,47.2,29.76,North,357,1.0,2.0,35,0.00,,,0.00,58,WeatherCatV1.12B45,2013-06-15 00:16:00,
2013-06-14 17:21:00,76.8,47.1,29.76,NNW,343,0.0,3.0,35,0.00,,,0.00,58,WeatherCatV1.12B45,2013-06-15 00:21:00,
2013-06-14 17:26:00,76.5,47.5,29.76,North,0,2.0,2.0,36,0.00,,,0.00,65,WeatherCatV1.12B45,2013-06-15 00:26:00,
2013-06-14 17:31:00,76.0,47.1,29.76,North,353,2.0,2.0,36,0.00,,,0.00,65,WeatherCatV1.12B45,2013-06-15 00:31:00,
2013-06-14 17:36:00,75.8,48.4,29.76,North,357,1.0,2.0,38,0.00,,,0.00,65,WeatherCatV1.12B45,2013-06-15 00:36:00,
2013-06-14 17:41:00,75.1,47.7,29.76,North,356,1.0,3.0,38,0.00,,,0.00,65,WeatherCatV1.12B45,2013-06-15 00:41:00,
2013-06-14 17:46:00,74.9,47.6,29.76,North,357,1.0,5.0,38,0.00,,,0.00,65,WeatherCatV1.12B45,2013-06-15 00:46:00,
2013-06-14 17:51:00,74.9,47.6,29.76,North,357,0.0,1.0,38,0.00,,,0.00,65,WeatherCatV1.12B45,2013-06-15 00:51:00,
2013-06-14 17:56:00,74.9,47.6,29.76,North,357,0.0,0.0,38,0.00,,,0.00,65,WeatherCatV1.12B45,2013-06-15 00:56:00,
2013-06-14 18:01:00,73.0,47.9,29.76,North,357,1.0,2.0,41,0.00,,,0.00,412,WeatherCatV1.12B45,2013-06-15 01:01:00,
2013-06-14 18:06:00,73.0,47.9,29.76,North,357,0.0,0.0,41,0.00,,,0.00,391,WeatherCatV1.12B45,2013-06-15 01:06:00,
2013-06-14 18:11:00,73.2,48.1,29.76,North,357,1.0,1.0,41,0.00,,,0.00,375,WeatherCatV1.12B45,2013-06-15 01:11:00,
2013-06-14 18:16:00,72.8,47.7,29.76,North,357,3.0,5.0,41,0.00,,,0.00,375,WeatherCatV1.12B45,2013-06-15 01:16:00,
2013-06-14 18:21:00,71.8,46.8,29.76,North,0,3.0,6.0,41,0.00,,,0.00,375,WeatherCatV1.12B45,2013-06-15 01:21:00,
2013-06-14 18:26:00,71.1,48.7,29.76,North,0,6.0,6.0,45,0.00,,,0.00,375,WeatherCatV1.12B45,2013-06-15 01:26:00,
2013-06-14 18:31:00,70.9,48.5,29.75,North,0,2.0,5.0,45,0.00,,,0.00,296,WeatherCatV1.12B45,2013-06-15 01:31:00,
2013-06-14 18:36:00,70.6,48.2,29.75,North,357,0.0,5.0,45,0.00,,,0.00,273,WeatherCatV1.12B45,2013-06-15 01:36:00,
2013-06-14 18:41:00,70.6,48.8,29.75,North,0,1.0,5.0,46,0.00,,,0.00,273,WeatherCatV1.12B45,2013-06-15 01:41:00,
2013-06-14 18:46:00,70.4,48.6,29.75,North,353,0.0,2.0,46,0.00,,,0.00,259,WeatherCatV1.12B45,2013-06-15 01:46:00,
2013-06-14 18:51:00,70.1,48.9,29.75,North,357,1.0,3.0,47,0.00,,,0.00,241,WeatherCatV1.12B45,2013-06-15 01:51:00,
2013-06-14 18:56:00,69.1,48.6,29.75,North,0,3.0,3.0,48,0.00,,,0.00,95,WeatherCatV1.12B45,2013-06-15 01:56:00,
2013-06-14 19:01:00,68.4,47.9,29.76,North,357,0.0,2.0,48,0.00,,,0.00,48,WeatherCatV1.12B45,2013-06-15 02:01:00,
2013-06-14 19:06:00,67.8,49.0,29.76,North,357,0.0,0.0,51,0.00,,,0.00,48,WeatherCatV1.12B45,2013-06-15 02:06:00,
2013-06-14 19:11:00,67.8,49.5,29.76,North,0,2.0,2.0,52,0.00,,,0.00,48,WeatherCatV1.12B45,2013-06-15 02:11:00,
2013-06-14 19:16:00,66.8,48.6,29.76,North,0,1.0,2.0,52,0.00,,,0.00,48,WeatherCatV1.12B45,2013-06-15 02:16:00,
2013-06-14 19:21:00,66.3,49.1,29.76,North,353,1.0,3.0,54,0.00,,,0.00,32,WeatherCatV1.12B45,2013-06-15 02:21:00,
2013-06-14 19:26:00,65.6,49.0,29.76,North,357,0.0,0.0,55,0.00,,,0.00,32,WeatherCatV1.12B45,2013-06-15 02:26:00,
2013-06-14 19:31:00,65.3,49.2,29.76,NNW,340,0.0,5.0,56,0.00,,,0.00,32,WeatherCatV1.12B45,2013-06-15 02:31:00,
2013-06-14 19:36:00,65.0,48.9,29.76,North,353,0.0,0.0,56,0.00,,,0.00,39,WeatherCatV1.12B45,2013-06-15 02:36:00,
2013-06-14 19:41:00,64.5,49.8,29.76,NNW,339,1.0,3.0,59,0.00,,,0.00,23,WeatherCatV1.12B45,2013-06-15 02:41:00,
2013-06-14 19:46:00,63.9,49.3,29.76,North,354,0.0,0.0,59,0.00,,,0.00,23,WeatherCatV1.12B45,2013-06-15 02:46:00,
2013-06-14 19:51:00,63.7,49.1,29.76,NNW,346,0.0,0.0,59,0.00,,,0.00,23,WeatherCatV1.12B45,2013-06-15 02:51:00,
2013-06-14 19:56:00,63.2,49.5,29.76,NNW,346,0.0,1.0,61,0.00,,,0.00,23,WeatherCatV1.12B45,2013-06-15 02:56:00,
2013-06-14 20:01:00,62.7,49.1,29.76,NNW,347,0.0,0.0,61,0.00,,,0.00,12,WeatherCatV1.12B45,2013-06-15 03:01:00,
2013-06-14 20:06:00,62.6,49.0,29.76,North,349,1.0,2.0,61,0.00,,,0.00,11,WeatherCatV1.12B45,2013-06-15 03:06:00,
2013-06-14 20:11:00,62.1,48.5,29.76,North,349,0.0,0.0,61,0.00,,,0.00,11,WeatherCatV1.12B45,2013-06-15 03:11:00,
2013-06-14 20:16:00,61.6,49.3,29.76,NNW,343,0.0,0.0,64,0.00,,,0.00,9,WeatherCatV1.12B45,2013-06-15 03:16:00,
2013-06-14 20:21:00,61.3,49.0,29.76,North,353,0.0,1.0,64,0.00,,,0.00,9,WeatherCatV1.12B45,2013-06-15 03:21:00,
2013-06-14 20:26:00,61.0,49.1,29.76,NNW,333,0.0,0.0,65,0.00,,,0.00,5,WeatherCatV1.12B45,2013-06-15 03:26:00,
2013-06-14 20:31:00,60.7,48.9,29.76,North,349,0.0,0.0,65,0.00,,,0.00,0,WeatherCatV1.12B45,2013-06-15 03:31:00,
2013-06-14 20:36:00,60.5,49.1,29.76,NNW,342,0.0,1.0,66,0.00,,,0.00,0,WeatherCatV1.12B45,2013-06-15 03:36:00,
2013-06-14 20:41:00,60.2,49.2,29.76,NNW,336,0.0,0.0,67,0.00,,,0.00,0,WeatherCatV1.12B45,2013-06-15 03:41:00,
2013-06-14 20:46:00,59.9,48.9,29.76,North,353,1.0,1.0,67,0.00,,,0.00,0,WeatherCatV1.12B45,2013-06-15 03:46:00,
2013-06-14 20:51:00,59.6,48.6,29.76,North,350,0.0,0.0,67,0.00,,,0.00,0,WeatherCatV1.12B45,2013-06-15 03:51:00,
2013-06-14 20:56:00,59.3,48.7,29.76,NW,318,0.0,1.0,68,0.00,,,0.00,0,WeatherCatV1.12B45,2013-06-15 03:56:00,
2013-06-14 21:01:00,59.0,48.8,29.77,NNW,337,1.0,1.0,69,0.00,,,0.00,0,WeatherCatV1.12B45,2013-06-15 04:01:00,
2013-06-14 21:06:00,58.9,48.7,29.77,NW,325,0.0,0.0,69,0.00,,,0.00,0,WeatherCatV1.12B45,2013-06-15 04:06:00,
2013-06-14 21:11:00,58.4,48.3,29.77,NNW,336,0.0,0.0,69,0.00,,,0.00,0,WeatherCatV1.12B45,2013-06-15 04:11:00,
2013-06-14 21:16:00,58.1,48.7,29.77,NNW,329,0.0,0.0,71,0.00,,,0.00,0,WeatherCatV1.12B45,2013-06-15 04:16:00,
2013-06-14 21:21:00,57.6,48.3,29.77,NNW,335,1.0,1.0,71,0.00,,,0.00,0,WeatherCatV1.12B45,2013-06-15 04:21:00,
2013-06-14 21:26:00,57.3,48.0,29.77,NW,326,0.0,0.0,71,0.00,,,0.00,0,WeatherCatV1.12B45,2013-06-15 04:26:00,
2013-06-14 21:31:00,57.2,48.6,29.77,NW,325,0.0,0.0,73,0.00,,,0.00,0,WeatherCatV1.12B45,2013-06-15 04:31:00,
2013-06-14 21:36:00,56.9,48.3,29.77,NW,320,0.0,0.0,73,0.00,,,0.00,0,WeatherCatV1.12B45,2013-06-15 04:36:00,
2013-06-14 21:41:00,56.7,48.1,29.77,NNW,330,0.0,0.0,73,0.00,,,0.00,0,WeatherCatV1.12B45,2013-06-15 04:41:00,
2013-06-14 21:46:00,56.5,47.9,29.77,NW,316,0.0,0.0,73,0.00,,,0.00,0,WeatherCatV1.12B45,2013-06-15 04:46:00,
2013-06-14 21:51:00,56.3,48.5,29.77,NNW,330,0.0,0.0,75,0.00,,,0.00,0,WeatherCatV1.12B45,2013-06-15 04:51:00,
2013-06-14 21:56:00,56.0,48.2,29.77,NNW,329,0.0,1.0,75,0.00,,,0.00,0,WeatherCatV1.12B45,2013-06-15 04:56:00,
2013-06-14 22:01:00,55.9,48.4,29.78,NW,320,0.0,0.0,76,0.00,,,0.00,0,WeatherCatV1.12B45,2013-06-15 05:01:00,
2013-06-14 22:06:00,55.6,48.5,29.78,NNW,336,0.0,0.0,77,0.00,,,0.00,0,WeatherCatV1.12B45,2013-06-15 05:06:00,
2013-06-14 22:11:00,55.3,48.6,29.78,NNW,335,0.0,0.0,78,0.00,,,0.00,0,WeatherCatV1.12B45,2013-06-15 05:11:00,
2013-06-14 22:16:00,55.3,48.6,29.78,NW,325,0.0,1.0,78,0.00,,,0.00,0,WeatherCatV1.12B45,2013-06-15 05:16:00,
2013-06-14 22:21:00,55.0,48.3,29.78,WNW,302,0.0,1.0,78,0.00,,,0.00,0,WeatherCatV1.12B45,2013-06-15 05:21:00,
2013-06-14 22:26:00,54.8,48.1,29.78,NNW,343,2.0,2.0,78,0.00,,,0.00,0,WeatherCatV1.12B45,2013-06-15 05:26:00,
2013-06-14 22:31:00,54.7,48.0,29.78,North,350,2.0,3.0,78,0.00,,,0.00,0,WeatherCatV1.12B45,2013-06-15 05:31:00,
2013-06-14 22:36:00,54.5,47.8,29.78,NNW,342,1.0,2.0,78,0.00,,,0.00,0,WeatherCatV1.12B45,2013-06-15 05:36:00,
2013-06-14 22:41:00,54.5,47.8,29.78,NNW,335,1.0,1.0,78,0.00,,,0.00,0,WeatherCatV1.12B45,2013-06-15 05:41:00,
2013-06-14 22:46:00,54.4,48.0,29.78,NNW,340,0.0,1.0,79,0.00,,,0.00,0,WeatherCatV1.12B45,2013-06-15 05:46:00,
2013-06-14 22:51:00,54.2,47.8,29.78,NNW,329,0.0,0.0,79,0.00,,,0.00,0,WeatherCatV1.12B45,2013-06-15 05:51:00,
2013-06-14 22:56:00,54.1,47.7,29.78,North,349,0.0,1.0,79,0.00,,,0.00,0,WeatherCatV1.12B45,2013-06-15 05:56:00,
2013-06-14 23:01:00,53.9,47.5,29.78,NNW,342,0.0,0.0,79,0.00,,,0.00,0,WeatherCatV1.12B45,2013-06-15 06:01:00,
2013-06-14 23:06:00,53.8,48.1,29.78,NNW,336,0.0,3.0,81,0.00,,,0.00,0,WeatherCatV1.12B45,2013-06-15 06:06:00,
2013-06-14 23:11:00,53.6,47.9,29.78,NNW,329,0.0,2.0,81,0.00,,,0.00,0,WeatherCatV1.12B45,2013-06-15 06:11:00,
2013-06-14 23:16:00,53.5,47.8,29.78,NW,320,0.0,1.0,81,0.00,,,0.00,0,WeatherCatV1.12B45,2013-06-15 06:16:00,
2013-06-14 23:21:00,53.3,47.9,29.78,NW,318,0.0,0.0,82,0.00,,,0.00,0,WeatherCatV1.12B45,2013-06-15 06:21:00,
2013-06-14 23:26:00,53.2,47.8,29.78,NW,326,0.0,0.0,82,0.00,,,0.00,0,WeatherCatV1.12B45,2013-06-15 06:26:00,
2013-06-14 23:31:00,53.1,47.8,29.78,NNW,329,2.0,2.0,82,0.00,,,0.00,0,WeatherCatV1.12B45,2013-06-15 06:31:00,
2013-06-14 23:36:00,53.1,47.8,29.78,NW,315,0.0,0.0,82,0.00,,,0.00,0,WeatherCatV1.12B45,2013-06-15 06:36:00,
2013-06-14 23:41:00,52.9,47.6,29.78,NW,312,0.0,2.0,82,0.00,,,0.00,0,WeatherCatV1.12B45,2013-06-15 06:41:00,
2013-06-14 23:46:00,52.8,48.1,29.78,NW,322,0.0,2.0,84,0.00,,,0.00,0,WeatherCatV1.12B45,2013-06-15 06:46:00,
2013-06-14 23:51:00,52.6,47.9,29.78,NW,319,0.0,2.0,84,0.00,,,0.00,0,WeatherCatV1.12B45,2013-06-15 06:51:00,
2013-06-14 23:56:00,52.6,48.2,29.78,NW,319,0.0,0.0,85,0.00,,,0.00,0,WeatherCatV1.12B45,2013-06-15 06:56:00,